Stirum, ND

7:23 AM CST on February 12, 2016 (GMT -0600)
Gwinner-melroe

Weather History for KGWR - December, 2013

Change the Weather History Date:

Monday, December 16, 2013

  Actual Average (KP67) Record (KP67)
Temperature  
Mean Temperature 20 °F -  
Max Temperature 33 °F 22 °F 37 °F (1997)
Min Temperature 8 °F 8 °F 10 °F (1996)
Degree Days  
Heating Degree Days 44    
Moisture  
Dew Point 19 °F    
Average Humidity 83    
Maximum Humidity 93    
Minimum Humidity 75    
Precipitation  
Precipitation 0.00 in - - ()
Sea Level Pressure  
Sea Level Pressure 29.90 in    
Wind  
Wind Speed 14 mph (WSW)    
Max Wind Speed 25 mph    
Max Gust Speed 44 mph    
Visibility 10 miles    
Events      
Averages and records for this station are not official NWS values.
T = Trace of Precipitation, MM = Missing Value Source: NWS Daily Summary

Daily Weather History Graph

Daily Weather History Graph

Search for Another Location

Airport or City:

Trip Planner

Search our weather history database for the weather conditions in past years. The results will help you decide how hot, cold, wet, or windy it might be!

Date:

Astronomy

Dec. 16, 2013 Rise Set
Actual Time 8:07 AM CST 4:45 PM CST
Civil Twilight 7:32 AM CST 5:20 PM CST
Nautical Twilight 6:54 AM CST 5:58 PM CST
Astronomical Twilight 6:17 AM CST 6:34 PM CST
Moon 4:39 PM CST (12/16) 7:13 AM CST (12/16)
Length of Visible Light 9h 47m
Length of Day
8h 37m
Full, 100% of the Moon is Illuminated
Dec 16
Full
Dec 17
Full
Dec 25
Last Quarter
Jan 1
New
Jan 7
First Quarter

Hourly Weather History & Observations

Time (CST) Temp. Windchill Dew Point Humidity Pressure Visibility Wind Dir Wind Speed Gust Speed Precip Events Conditions
12:15 AM 8.6 °F -4.7 °F 3.2 °F 79% 29.94 in 10.0 mi SSE 9.2 mph - 0.00 in   Overcast
12:35 AM 8.6 °F -4.7 °F 3.2 °F 79% 29.93 in 10.0 mi South 9.2 mph - 0.00 in   Overcast
12:55 AM 8.6 °F -5.5 °F 3.2 °F 79% 29.92 in 10.0 mi SSE 10.4 mph - 0.00 in   Overcast
1:15 AM 8.6 °F -2.6 °F 3.2 °F 79% 29.93 in 10.0 mi SSE 6.9 mph - 0.00 in   Overcast
1:35 AM 8.6 °F -5.5 °F 3.2 °F 79% 29.90 in 10.0 mi SSE 10.4 mph - 0.00 in   Overcast
1:55 AM 8.6 °F -3.7 °F 5.0 °F 85% 29.89 in 10.0 mi SSE 8.1 mph - 0.00 in   Overcast
2:15 AM 10.4 °F 2.2 °F 5.0 °F 79% 29.91 in 10.0 mi South 4.6 mph - 0.00 in   Overcast
2:35 AM 12.2 °F -1.0 °F 8.6 °F 85% 29.89 in 10.0 mi South 10.4 mph - 0.00 in   Overcast
2:55 AM 12.2 °F -2.5 °F 8.6 °F 85% 29.89 in 10.0 mi SSW 12.7 mph - 0.00 in   Mostly Cloudy
3:15 AM 12.2 °F -0.2 °F 8.6 °F 85% 29.88 in 10.0 mi South 9.2 mph - 0.00 in   Clear
3:35 AM 12.2 °F -2.5 °F 8.6 °F 85% 29.88 in 10.0 mi SSW 12.7 mph - 0.00 in   Partly Cloudy
4:15 AM 12.2 °F -2.5 °F 8.6 °F 85% 29.87 in 10.0 mi SSW 12.7 mph - 0.00 in   Mostly Cloudy
4:35 AM 12.2 °F -2.5 °F 8.6 °F 85% 29.86 in 10.0 mi SSW 12.7 mph - 0.00 in   Mostly Cloudy
4:55 AM 14.0 °F -2.0 °F 10.4 °F 86% 29.87 in 10.0 mi SW 16.1 mph - 0.00 in   Mostly Cloudy
5:15 AM 14.0 °F -2.0 °F 10.4 °F 86% 29.88 in 10.0 mi WSW 16.1 mph 20.7 mph 0.00 in   Scattered Clouds
5:35 AM 14.0 °F -0.8 °F 8.6 °F 79% 29.87 in 10.0 mi SW 13.8 mph - 0.00 in   Mostly Cloudy
5:55 AM 14.0 °F -1.4 °F 8.6 °F 79% 29.87 in 10.0 mi SW 15.0 mph - 0.00 in   Overcast
6:15 AM 14.0 °F -2.0 °F 8.6 °F 79% 29.87 in 10.0 mi SW 16.1 mph - 0.00 in   Overcast
6:35 AM 14.0 °F -0.8 °F 8.6 °F 79% 29.87 in 10.0 mi SW 13.8 mph - 0.00 in   Mostly Cloudy
6:55 AM 14.0 °F -2.5 °F 8.6 °F 79% 29.84 in 5.0 mi SSW 17.3 mph - 0.00 in   Mostly Cloudy
7:15 AM 12.2 °F -4.8 °F 8.6 °F 85% 29.84 in 10.0 mi SW 17.3 mph - 0.00 in   Mostly Cloudy
7:35 AM 14.0 °F -2.0 °F 8.6 °F 79% 29.87 in 10.0 mi WSW 16.1 mph - 0.00 in   Mostly Cloudy
7:55 AM 14.0 °F -3.9 °F 10.4 °F 86% 29.87 in 10.0 mi SW 20.7 mph - 0.00 in   Overcast
8:15 AM 12.2 °F -5.8 °F 8.6 °F 85% 29.87 in 10.0 mi SW 19.6 mph - 0.00 in   Mostly Cloudy
8:35 AM 12.2 °F -5.3 °F 8.6 °F 85% 29.87 in 10.0 mi WSW 18.4 mph - 0.00 in   Partly Cloudy
8:55 AM 12.2 °F -4.8 °F 8.6 °F 85% 29.88 in 10.0 mi WSW 17.3 mph - 0.00 in   Clear
9:15 AM 12.2 °F -4.8 °F 8.6 °F 85% 29.88 in 10.0 mi SW 17.3 mph - 0.00 in   Clear
9:35 AM 12.2 °F -3.7 °F 8.6 °F 85% 29.89 in 10.0 mi SW 15.0 mph - 0.00 in   Clear
9:55 AM 14.0 °F -2.0 °F 10.4 °F 86% 29.90 in 10.0 mi SW 16.1 mph - 0.00 in   Clear
10:15 AM 15.8 °F 0.3 °F 12.2 °F 86% 29.91 in 10.0 mi WSW 16.1 mph - 0.00 in   Clear
10:35 AM 19.4 °F 5.0 °F 15.8 °F 86% 29.91 in 10.0 mi West 16.1 mph - 0.00 in   Clear
10:55 AM 21.2 °F 7.3 °F 17.6 °F 86% 29.92 in 10.0 mi West 16.1 mph - 0.00 in   Clear
11:15 AM 24.8 °F 12.4 °F 21.2 °F 86% 29.92 in 10.0 mi West 15.0 mph - 0.00 in   Clear
11:35 AM 26.6 °F 14.3 °F 23.0 °F 86% 29.91 in 10.0 mi West 16.1 mph - 0.00 in   Clear
11:55 AM 28.4 °F 16.6 °F 23.0 °F 80% 29.91 in 10.0 mi West 16.1 mph - 0.00 in   Clear
12:15 PM 30.2 °F 19.3 °F 24.8 °F 80% 29.91 in 10.0 mi West 15.0 mph - 0.00 in   Clear
12:35 PM 32.0 °F 20.8 °F 26.6 °F 80% 29.92 in 10.0 mi West 17.3 mph - 0.00 in   Clear
12:55 PM 32.0 °F 21.6 °F 26.6 °F 80% 29.91 in 10.0 mi West 15.0 mph - 0.00 in   Clear
1:15 PM 32.0 °F 21.6 °F 26.6 °F 80% 29.91 in 10.0 mi West 15.0 mph - 0.00 in   Clear
1:35 PM 32.0 °F 21.2 °F 26.6 °F 80% 29.90 in 10.0 mi West 16.1 mph 20.7 mph 0.00 in   Clear
1:55 PM 32.0 °F 21.2 °F 26.6 °F 80% 29.90 in 10.0 mi West 16.1 mph - 0.00 in   Clear
2:15 PM 33.8 °F 22.8 °F 26.6 °F 75% 29.90 in 10.0 mi WNW 18.4 mph - 0.00 in   Clear
2:35 PM 33.8 °F 22.8 °F 26.6 °F 75% 29.90 in 10.0 mi West 18.4 mph - 0.00 in   Clear
2:55 PM 32.0 °F 19.8 °F 24.8 °F 75% 29.91 in 10.0 mi West 20.7 mph 24.2 mph 0.00 in   Clear
3:15 PM 32.0 °F 20.8 °F 26.6 °F 80% 29.92 in 10.0 mi West 17.3 mph - 0.00 in   Clear
3:35 PM 32.0 °F 21.2 °F 26.6 °F 80% 29.92 in 10.0 mi West 16.1 mph - 0.00 in   Clear
3:55 PM 32.0 °F 21.6 °F 26.6 °F 80% 29.93 in 10.0 mi West 15.0 mph - 0.00 in   Clear
4:15 PM 32.0 °F 21.2 °F 26.6 °F 80% 29.93 in 10.0 mi West 16.1 mph - 0.00 in   Clear
4:35 PM 32.0 °F 21.2 °F 26.6 °F 80% 29.93 in 10.0 mi West 16.1 mph - 0.00 in   Clear
4:55 PM 32.0 °F 22.5 °F 26.6 °F 80% 29.93 in 10.0 mi West 12.7 mph - 0.00 in   Clear
5:15 PM 32.0 °F 21.6 °F 26.6 °F 80% 29.93 in 10.0 mi West 15.0 mph - 0.00 in   Clear
5:35 PM 32.0 °F 21.2 °F 26.6 °F 80% 29.93 in 10.0 mi West 16.1 mph - 0.00 in   Clear
5:55 PM 32.0 °F 21.2 °F 26.6 °F 80% 29.92 in 10.0 mi West 16.1 mph - 0.00 in   Clear
6:15 PM 30.2 °F 19.8 °F 26.6 °F 86% 29.92 in 10.0 mi West 13.8 mph - 0.00 in   Clear
6:35 PM 30.2 °F 18.9 °F 26.6 °F 86% 29.92 in 10.0 mi West 16.1 mph - 0.00 in   Clear
6:55 PM 32.0 °F 20.8 °F 26.6 °F 80% 29.92 in 10.0 mi West 17.3 mph - 0.00 in   Clear
7:15 PM 32.0 °F 21.2 °F 26.6 °F 80% 29.91 in 10.0 mi West 16.1 mph - 0.00 in   Clear
7:35 PM 32.0 °F 21.2 °F 28.4 °F 87% 29.90 in 10.0 mi West 16.1 mph - 0.00 in   Clear
7:55 PM 32.0 °F 21.2 °F 28.4 °F 87% 29.91 in 10.0 mi West 16.1 mph - 0.00 in   Clear
8:15 PM 32.0 °F 20.5 °F 28.4 °F 87% 29.91 in 10.0 mi West 18.4 mph - 0.00 in   Clear
8:35 PM 32.0 °F 19.8 °F 30.2 °F 93% 29.91 in 10.0 mi West 20.7 mph - 0.00 in   Clear
8:55 PM 33.8 °F 22.2 °F 30.2 °F 87% 29.90 in 10.0 mi West 20.7 mph 25.3 mph 0.00 in   Clear
9:15 PM 32.0 °F 19.5 °F 30.2 °F 93% 29.91 in 10.0 mi West 21.9 mph - 0.00 in   Clear
9:35 PM 33.8 °F 21.9 °F 30.2 °F 87% 29.91 in 10.0 mi West 21.9 mph 29.9 mph 0.00 in   Clear
9:55 PM 33.8 °F 21.6 °F 30.2 °F 87% 29.91 in 10.0 mi West 23.0 mph 31.1 mph 0.00 in   Partly Cloudy
10:15 PM 33.8 °F 21.0 °F 30.2 °F 87% 29.91 in 10.0 mi West 25.3 mph 32.2 mph 0.00 in   Clear
10:35 PM 33.8 °F 21.3 °F 30.2 °F 87% 29.91 in 10.0 mi West 24.2 mph 28.8 mph 0.00 in   Clear
10:55 PM 33.8 °F 21.9 °F 30.2 °F 87% 29.91 in 10.0 mi WNW 21.9 mph 29.9 mph 0.00 in   Scattered Clouds
11:15 PM 33.8 °F 21.6 °F 30.2 °F 87% 29.93 in 7.0 mi WNW 23.0 mph 43.7 mph 0.00 in   Mostly Cloudy
11:55 PM 33.8 °F 22.5 °F 28.4 °F 81% 29.93 in 10.0 mi WNW 19.6 mph 26.5 mph 0.00 in   Scattered Clouds